Emerado, ND

5:32 PM CST on February 27, 2017 (GMT -0600)
Grand Forks International

Weather History for KGFK - August, 2013

Change the Weather History Date:

Tuesday, August 27, 2013

  Actual Average Record
Temperature  
Mean Temperature 77 °F 65 °F  
Max Temperature 95 °F 78 °F 98 °F (1991)
Min Temperature 58 °F 52 °F 32 °F (1982)
Degree Days  
Heating Degree Days 0 3  
Month to date heating degree days 53 41  
Since 1 June heating degree days 159 172  
Since 1 July heating degree days 82 69  
Cooling Degree Days 12 3  
Month to date cooling degree days 117 112  
Year to date cooling degree days 405 345  
Since 1 June cooling degree days 396 328  
Growing Degree Days 24 (Base 50)    
Moisture  
Dew Point 62 °F    
Average Humidity 66    
Maximum Humidity 100    
Minimum Humidity 32    
Precipitation  
Precipitation 0.00 in 0.09 in 0.71 in (1995)
Month to date precipitation 0.32 2.52  
Year to date precipitation 13.67 14.87  
Snow  
Snow 0.00 in 0.00 in - ()
Month to date snowfall 0.0 0.0  
Since 1 June snowfall 0.0 0.0  
Since 1 July snowfall 0.0 0.0  
Snow Depth 0.00 in    
Sea Level Pressure  
Sea Level Pressure 29.82 in    
Wind  
Wind Speed 2 mph (SW)    
Max Wind Speed 8 mph    
Max Gust Speed 10 mph    
Visibility 4 miles    
Events Fog    
T = Trace of Precipitation, MM = Missing Value Source: NWS Daily Summary

Daily Weather History Graph

Daily Weather History Graph

Search for Another Location

Airport or City:

Trip Planner

Search our weather history database for the weather conditions in past years. The results will help you decide how hot, cold, wet, or windy it might be!

Date:

Astronomy

Aug. 27, 2013 Rise Set
Actual Time 6:40 AM CDT 8:18 PM CDT
Civil Twilight 6:07 AM CDT 8:51 PM CDT
Nautical Twilight 5:27 AM CDT 9:31 PM CDT
Astronomical Twilight 4:44 AM CDT 10:14 PM CDT
Moon 11:39 PM CDT 2:13 PM CDT
Length of Visible Light 14h 43m
Length of Day
13h 38m
Waning Gibbous, 57% of the Moon is Illuminated
Aug 27
Waning Gibbous
Aug 28
Last Quarter
Sep 5
New
Sep 12
First Quarter
Sep 19
Full

Hourly Weather History & Observations

Time (CDT) Temp. Heat Index Dew Point Humidity Pressure Visibility Wind Dir Wind Speed Gust Speed Precip Events Conditions
12:19 AM 62.6 °F - 62.6 °F 100% 29.81 in 2.0 mi SSW 5.8 mph - N/A   Clear
12:29 AM 64.4 °F - 64.4 °F 100% 29.81 in 5.0 mi SSW 4.6 mph - N/A   Clear
12:53 AM 64.0 °F - 63.0 °F 96% 29.81 in 2.0 mi Calm Calm - N/A   Clear
1:00 AM 62.6 °F - 62.6 °F 100% 29.81 in 1.0 mi Calm Calm - N/A   Clear
1:07 AM 62.6 °F - 62.6 °F 100% 29.82 in 3.0 mi Calm Calm - N/A   Clear
1:20 AM 62.6 °F - 60.8 °F 94% 29.81 in 1.8 mi Calm Calm - N/A   Clear
1:30 AM 62.6 °F - 60.8 °F 94% 29.82 in 3.0 mi Calm Calm - N/A   Clear
1:38 AM 62.6 °F - 60.8 °F 94% 29.81 in 2.0 mi Calm Calm - N/A   Partly Cloudy
1:40 AM 62.6 °F - 60.8 °F 94% 29.82 in 0.8 mi NW 3.5 mph - N/A   Mist
1:48 AM 60.8 °F - 60.8 °F 100% 29.81 in 0.2 mi NW 3.5 mph - N/A Fog Fog
1:53 AM 62.1 °F - 61.0 °F 96% 29.81 in 0.2 mi Calm Calm - N/A Fog Fog
2:19 AM 60.8 °F - 60.8 °F 100% 29.81 in 0.2 mi Calm Calm - N/A Fog Fog
2:46 AM 60.8 °F - 60.8 °F 100% 29.81 in 0.5 mi West 3.5 mph - N/A Fog Fog
2:53 AM 60.1 °F - 60.1 °F 100% 29.80 in 0.2 mi Calm Calm - N/A Fog Fog
3:10 AM 62.6 °F - 62.6 °F 100% 29.80 in 0.5 mi Calm Calm - N/A Fog Fog
3:15 AM 62.6 °F - 62.6 °F 100% 29.81 in 1.2 mi Calm Calm - N/A   Partly Cloudy
3:17 AM 62.6 °F - 62.6 °F 100% 29.81 in 4.0 mi East 3.5 mph - N/A   Partly Cloudy
3:38 AM 59.0 °F - 59.0 °F 100% 29.81 in 1.8 mi Calm Calm - N/A   Partly Cloudy
3:42 AM 60.8 °F - 59.0 °F 94% 29.81 in 0.8 mi Calm Calm - N/A   Mist
3:49 AM 60.8 °F - 60.8 °F 100% 29.81 in 0.5 mi Calm Calm - N/A Fog Fog
3:53 AM 61.0 °F - 61.0 °F 100% 29.81 in 0.5 mi Calm Calm - N/A Fog Fog
4:03 AM 60.8 °F - 60.8 °F 100% 29.81 in 0.2 mi SSE 3.5 mph - N/A Fog Fog
4:32 AM 60.8 °F - 59.0 °F 94% 29.80 in 1.0 mi Calm Calm - N/A   Mist
4:48 AM 57.2 °F - 57.2 °F 100% 29.81 in 0.5 mi Calm Calm - N/A Fog Fog
4:53 AM 57.9 °F - 57.9 °F 100% 29.81 in 0.2 mi Calm Calm - N/A Fog Fog
5:33 AM 57.2 °F - 57.2 °F 100% 29.81 in 0.5 mi West 4.6 mph - N/A Fog Fog
5:42 AM 59.0 °F - 59.0 °F 100% 29.81 in 0.2 mi Calm Calm - N/A Fog Fog
5:53 AM 59.0 °F - 59.0 °F 100% 29.82 in 0.2 mi WSW 3.5 mph - N/A Fog Fog
6:14 AM 59.0 °F - 59.0 °F 100% 29.82 in 0.5 mi West 3.5 mph - N/A Fog Fog
6:22 AM 59.0 °F - 57.2 °F 94% 29.82 in 0.2 mi West 3.5 mph - N/A Fog Fog
6:53 AM 57.9 °F - 57.9 °F 100% 29.83 in 0.5 mi WNW 3.5 mph - N/A Fog Fog
7:26 AM 60.8 °F - 60.8 °F 100% 29.84 in 3.0 mi Calm Calm - N/A   Mostly Cloudy
7:53 AM 61.0 °F - 61.0 °F 100% 29.84 in 8.0 mi Calm Calm - N/A   Scattered Clouds
8:53 AM 68.0 °F - 64.9 °F 90% 29.85 in 10.0 mi West 3.5 mph - N/A   Scattered Clouds
9:53 AM 75.9 °F - 66.0 °F 71% 29.84 in 10.0 mi Calm Calm - N/A   Scattered Clouds
10:53 AM 81.0 °F 82.5 °F 64.0 °F 56% 29.85 in 10.0 mi NE 3.5 mph - N/A   Mostly Cloudy
11:53 AM 86.0 °F 87.3 °F 64.0 °F 48% 29.85 in 10.0 mi Variable 3.5 mph - N/A   Scattered Clouds
12:53 PM 86.0 °F 87.3 °F 64.0 °F 48% 29.85 in 10.0 mi Variable 3.5 mph - N/A   Scattered Clouds
1:53 PM 90.0 °F 90.3 °F 62.1 °F 39% 29.83 in 10.0 mi Calm Calm - N/A   Scattered Clouds
2:53 PM 90.0 °F 90.3 °F 62.1 °F 39% 29.83 in 10.0 mi SW 4.6 mph - N/A   Scattered Clouds
3:53 PM 91.9 °F 90.8 °F 57.9 °F 32% 29.82 in 10.0 mi Calm Calm - N/A   Scattered Clouds
4:53 PM 91.9 °F 91.5 °F 60.1 °F 34% 29.83 in 10.0 mi North 3.5 mph - N/A   Scattered Clouds
5:53 PM 91.9 °F 92.5 °F 62.1 °F 37% 29.83 in 10.0 mi Calm Calm - N/A   Mostly Cloudy
6:53 PM 88.0 °F 90.3 °F 66.0 °F 48% 29.82 in 10.0 mi South 4.6 mph - N/A   Mostly Cloudy
7:53 PM 81.0 °F 83.8 °F 68.0 °F 65% 29.82 in 10.0 mi SSE 5.8 mph - N/A   Scattered Clouds
8:53 PM 79.0 °F - 66.9 °F 66% 29.84 in 10.0 mi South 3.5 mph - N/A   Scattered Clouds
9:53 PM 77.0 °F - 66.0 °F 69% 29.86 in 10.0 mi South 4.6 mph - N/A   Scattered Clouds
10:53 PM 75.0 °F - 66.0 °F 73% 29.87 in 10.0 mi SW 8.1 mph - N/A   Scattered Clouds
11:53 PM 73.9 °F - 66.0 °F 76% 29.86 in 10.0 mi South 3.5 mph - N/A   Clear